Location: Unspecified
(47.0333°N, 0.0000°E)
Time: 11:05:43
(UTC+00:00)

OTV 5 (USA 277) - Pass Details

Date: 17 June 2019
Orbit: 305 x 329 km, 54.5° (Epoch: 11 August)

Event Time Altitude Azimuth Distance (km) Brightness Sun altitude
Exits shadow 01:37:02 - 286° (WNW) 1,821 ? -16.3°
Reaches altitude 10° 01:38:38 10° 301° (WNW) 1,261 ? -16.2°
Drops below altitude 10° 01:42:54 10° 40° (NE) 1,262 ? -15.9°
Enters shadow 02:39:25 -68° 265° (W) 12,158 ? -11.0°
Maximum altitude 03:15:48 20° 11° (N) 848 ? -7.0°
